Location: Haulchin
(50.3172°N, 3.4360°E)
Time: 03:18:23
(UTC+00:00)

Cosmos 1833 - Pass Details

Date: 23 May 2024
Orbit: 835 x 863 km, 70.9° (Epoch: 17 June)

Event Time Altitude Azimuth Distance (km) Brightness Sun altitude
Exits shadow 02:58:18 - 213° (SSW) 2,660 6.2 -7.0°
Reaches altitude 10° 02:58:49 10° 213° (SSW) 2,463 6.0 -6.9°
Maximum altitude 03:04:29 79° 301° (WNW) 863 4.3 -6.3°
Drops below altitude 10° 03:10:09 10° 28° (NNE) 2,463 8.0 -5.6°
Sets 03:12:36 0° 30° (NNE) 3,399 9.0 -5.3°
